Location: Davayat
(45.9471°N, 3.1105°E)
Time: 14:15:17
(UTC+00:00)

SMAP - Pass Details

Date: 01 December 2020
Orbit: 681 x 683 km, 98.1° (Epoch: 27 January)

Event Time Altitude Azimuth Distance (km) Brightness Sun altitude
Rises 16:59:34 0° 161° (SSE) 3,032 6.4 -9.4°
Reaches altitude 10° 17:01:47 10° 160° (SSE) 2,122 5.6 -9.8°
Maximum altitude 17:06:25 79° 76° (ENE) 702 3.0 -10.6°
Drops below altitude 10° 17:11:06 10° 349° (N) 2,139 5.5 -11.3°
Sets 17:13:21 0° 348° (NNW) 3,059 6.3 -11.7°
